Time,TemperatureF,DewpointF,PressureIn,WindDirection,WindDirectionDegrees,WindSpeedMPH,WindSpeedGustMPH,Humidity,HourlyPrecipIn,Conditions,Clouds,dailyrainin,SoftwareType,DateUTC
2017-08-17 00:03:00,77.8,75.0,30.05,NNE,23,0.0,-999.0,93,0.00,,,0.00,,2017-08-17 04:03:00,
2017-08-17 00:09:00,77.8,75.0,30.06,SE,135,0.0,-999.0,93,0.00,,,0.00,,2017-08-17 04:09:00,
2017-08-17 00:15:00,77.8,76.0,30.08,SE,135,0.0,-999.0,93,0.00,,,0.00,,2017-08-17 04:15:00,
2017-08-17 00:21:00,77.6,75.0,30.06,SE,135,0.0,-999.0,93,0.00,,,0.00,,2017-08-17 04:21:00,
2017-08-17 00:27:00,77.6,75.0,30.07,SE,135,0.0,-999.0,93,0.00,,,0.00,,2017-08-17 04:27:00,
2017-08-17 00:32:00,77.6,76.0,30.07,SE,135,0.0,-999.0,95,0.00,,,0.00,,2017-08-17 04:32:00,
2017-08-17 00:38:00,77.6,76.0,30.04,SE,135,0.0,-999.0,95,0.00,,,0.00,,2017-08-17 04:38:00,
2017-08-17 00:43:00,77.5,75.0,30.05,SE,135,0.0,-999.0,93,0.00,,,0.00,,2017-08-17 04:43:00,
2017-08-17 00:49:00,77.5,75.0,30.07,SE,135,0.0,-999.0,95,0.00,,,0.00,,2017-08-17 04:49:00,
2017-08-17 00:56:00,77.4,75.0,30.07,SE,135,0.0,-999.0,95,0.00,,,0.00,,2017-08-17 04:56:00,
2017-08-17 01:02:00,77.4,75.0,30.07,East,90,0.0,-999.0,95,0.00,,,0.00,,2017-08-17 05:02:00,
2017-08-17 01:07:00,77.4,76.0,30.06,ESE,113,0.0,-999.0,96,0.00,,,0.00,,2017-08-17 05:07:00,
2017-08-17 01:13:00,77.1,75.0,30.07,SE,135,0.0,-999.0,96,0.00,,,0.00,,2017-08-17 05:13:00,
2017-08-17 01:19:00,77.1,75.0,30.03,SE,135,0.0,-999.0,96,0.00,,,0.00,,2017-08-17 05:19:00,
2017-08-17 01:25:00,77.1,75.0,30.07,SE,135,0.0,-999.0,96,0.00,,,0.00,,2017-08-17 05:25:00,
2017-08-17 01:30:00,76.9,75.0,30.03,SE,135,0.0,-999.0,96,0.00,,,0.00,,2017-08-17 05:30:00,
2017-08-17 01:38:00,76.9,75.0,30.03,ENE,68,0.0,-999.0,96,0.00,,,0.00,,2017-08-17 05:38:00,
2017-08-17 01:45:00,76.8,75.0,30.06,SE,135,0.0,-999.0,96,0.00,,,0.00,,2017-08-17 05:45:00,
2017-08-17 01:51:00,76.8,75.0,30.02,SE,135,0.0,-999.0,96,0.00,,,0.00,,2017-08-17 05:51:00,
2017-08-17 01:57:00,76.5,75.0,30.05,South,180,0.0,-999.0,96,0.00,,,0.00,,2017-08-17 05:57:00,
2017-08-17 02:04:00,76.5,75.0,30.02,SSE,158,0.0,-999.0,96,0.00,,,0.00,,2017-08-17 06:04:00,
2017-08-17 02:09:00,76.5,75.0,30.02,SSE,158,0.0,-999.0,96,0.00,,,0.00,,2017-08-17 06:09:00,
2017-08-17 02:15:00,76.5,75.0,30.04,ESE,113,0.0,-999.0,96,0.00,,,0.00,,2017-08-17 06:15:00,
2017-08-17 02:21:00,76.4,75.0,30.01,SE,135,0.0,-999.0,96,0.00,,,0.00,,2017-08-17 06:21:00,
2017-08-17 02:26:00,76.4,75.0,30.02,SSE,158,0.0,-999.0,96,0.00,,,0.00,,2017-08-17 06:26:00,
2017-08-17 02:32:00,76.4,75.0,30.01,SSE,158,0.0,-999.0,96,0.00,,,0.00,,2017-08-17 06:32:00,
2017-08-17 02:37:00,76.4,75.0,30.01,South,180,0.0,-999.0,96,0.00,,,0.00,,2017-08-17 06:37:00,
2017-08-17 02:43:00,76.4,75.0,30.05,ESE,113,0.0,-999.0,96,0.00,,,0.00,,2017-08-17 06:43:00,
2017-08-17 02:49:00,76.4,75.0,30.01,SSE,158,0.0,-999.0,96,0.00,,,0.00,,2017-08-17 06:49:00,
2017-08-17 02:55:00,76.4,75.0,30.04,SE,135,0.0,-999.0,96,0.00,,,0.00,,2017-08-17 06:55:00,
2017-08-17 03:00:00,76.4,75.0,30.03,South,180,0.0,-999.0,96,0.00,,,0.00,,2017-08-17 07:00:00,
2017-08-17 03:06:00,76.3,75.0,30.05,SSE,158,0.0,-999.0,96,0.00,,,0.00,,2017-08-17 07:06:00,
2017-08-17 03:11:00,76.3,75.0,30.01,SSE,158,0.0,-999.0,96,0.00,,,0.00,,2017-08-17 07:11:00,
2017-08-17 03:17:00,76.3,75.0,30.04,SSE,158,0.0,-999.0,96,0.00,,,0.00,,2017-08-17 07:17:00,
2017-08-17 03:24:00,76.0,74.0,30.01,ESE,113,0.0,-999.0,96,0.00,,,0.00,,2017-08-17 07:24:00,
2017-08-17 03:29:00,76.0,74.0,30.00,South,180,0.0,-999.0,96,0.00,,,0.00,,2017-08-17 07:29:00,
2017-08-17 03:35:00,75.9,74.0,30.04,SE,135,0.0,-999.0,96,0.00,,,0.00,,2017-08-17 07:35:00,
2017-08-17 03:40:00,75.9,74.0,30.00,SSE,158,0.0,-999.0,96,0.00,,,0.00,,2017-08-17 07:40:00,
2017-08-17 03:46:00,75.6,74.0,30.00,SSE,158,0.0,-999.0,96,0.00,,,0.00,,2017-08-17 07:46:00,
2017-08-17 03:51:00,75.6,74.0,30.04,SSE,158,0.0,-999.0,96,0.00,,,0.00,,2017-08-17 07:51:00,
2017-08-17 03:57:00,75.5,74.0,30.00,SSE,158,0.0,-999.0,96,0.00,,,0.00,,2017-08-17 07:57:00,
2017-08-17 04:03:00,75.3,74.0,30.02,SE,135,0.0,-999.0,96,0.00,,,0.00,,2017-08-17 08:03:00,
2017-08-17 04:09:00,75.3,74.0,29.99,ENE,68,0.0,-999.0,96,0.00,,,0.00,,2017-08-17 08:09:00,
2017-08-17 04:15:00,75.3,74.0,30.00,ENE,68,0.0,-999.0,96,0.00,,,0.00,,2017-08-17 08:15:00,
2017-08-17 04:22:00,75.1,74.0,30.00,SE,135,0.0,-999.0,96,0.00,,,0.00,,2017-08-17 08:22:00,
2017-08-17 04:28:00,75.1,74.0,29.99,North,0,0.0,-999.0,96,0.00,,,0.00,,2017-08-17 08:28:00,
2017-08-17 04:33:00,75.1,74.0,30.03,NNE,23,0.0,-999.0,96,0.00,,,0.00,,2017-08-17 08:33:00,
2017-08-17 04:38:00,75.1,74.0,30.03,NE,45,0.0,-999.0,96,0.00,,,0.00,,2017-08-17 08:38:00,
2017-08-17 04:44:00,75.0,74.0,30.02,SSE,158,0.0,-999.0,96,0.00,,,0.00,,2017-08-17 08:44:00,
2017-08-17 04:49:00,75.0,74.0,30.03,ESE,113,0.0,-999.0,96,0.00,,,0.00,,2017-08-17 08:49:00,
2017-08-17 04:54:00,74.8,73.0,30.00,SE,135,0.0,-999.0,96,0.00,,,0.00,,2017-08-17 08:54:00,
2017-08-17 05:00:00,74.8,73.0,30.03,SSE,158,0.0,-999.0,96,0.00,,,0.00,,2017-08-17 09:00:00,
2017-08-17 05:05:00,74.6,73.0,30.00,ESE,113,0.0,-999.0,96,0.00,,,0.00,,2017-08-17 09:05:00,
2017-08-17 05:11:00,74.6,74.0,30.04,ESE,113,0.0,-999.0,98,0.00,,,0.00,,2017-08-17 09:11:00,
2017-08-17 05:16:00,74.4,73.0,30.02,ESE,113,0.0,-999.0,98,0.00,,,0.00,,2017-08-17 09:16:00,
2017-08-17 05:22:00,74.4,73.0,30.03,ESE,113,0.0,-999.0,98,0.00,,,0.00,,2017-08-17 09:22:00,
2017-08-17 05:28:00,74.3,73.0,30.00,ESE,113,0.0,-999.0,98,0.00,,,0.00,,2017-08-17 09:28:00,
2017-08-17 05:33:00,74.3,73.0,29.98,SSE,158,0.0,-999.0,98,0.00,,,0.00,,2017-08-17 09:33:00,
2017-08-17 05:38:00,74.3,73.0,30.04,ESE,113,0.0,-999.0,98,0.00,,,0.00,,2017-08-17 09:38:00,
2017-08-17 05:43:00,74.3,73.0,30.03,ESE,113,0.0,-999.0,98,0.00,,,0.00,,2017-08-17 09:43:00,
2017-08-17 05:49:00,74.3,73.0,30.03,SE,135,0.0,-999.0,98,0.00,,,0.00,,2017-08-17 09:49:00,
2017-08-17 05:55:00,74.0,73.0,29.99,ESE,113,0.0,-999.0,98,0.00,,,0.00,,2017-08-17 09:55:00,
2017-08-17 06:01:00,74.0,73.0,30.04,SE,135,0.0,-999.0,98,0.00,,,0.00,,2017-08-17 10:01:00,
2017-08-17 06:07:00,74.0,73.0,30.01,SE,135,0.0,-999.0,98,0.00,,,0.00,,2017-08-17 10:07:00,
2017-08-17 06:13:00,74.0,73.0,30.02,SE,135,0.0,-999.0,98,0.00,,,0.00,,2017-08-17 10:13:00,
2017-08-17 06:18:00,73.9,73.0,30.02,ESE,113,0.0,-999.0,98,0.00,,,0.00,,2017-08-17 10:18:00,
2017-08-17 06:24:00,73.9,73.0,30.00,ESE,113,0.0,-999.0,98,0.00,,,0.00,,2017-08-17 10:24:00,
2017-08-17 06:34:00,73.8,73.0,30.02,ESE,113,0.0,-999.0,98,0.00,,,0.00,,2017-08-17 10:34:00,
2017-08-17 06:39:00,73.8,73.0,30.02,ESE,113,0.0,-999.0,98,0.00,,,0.00,,2017-08-17 10:39:00,
2017-08-17 06:47:00,73.5,72.0,30.02,SSE,158,0.0,-999.0,98,0.00,,,0.00,,2017-08-17 10:47:00,
2017-08-17 06:52:00,73.4,72.0,30.03,ESE,113,0.0,-999.0,98,0.00,,,0.00,,2017-08-17 10:52:00,
2017-08-17 06:59:00,73.4,72.0,30.02,SE,135,0.0,-999.0,98,0.00,,,0.00,,2017-08-17 10:59:00,
2017-08-17 07:06:00,73.4,72.0,30.02,SE,135,0.0,-999.0,98,0.00,,,0.00,,2017-08-17 11:06:00,
2017-08-17 07:12:00,73.4,72.0,30.02,SE,135,0.0,-999.0,98,0.00,,,0.00,,2017-08-17 11:12:00,
2017-08-17 07:18:00,73.4,72.0,30.02,SE,135,0.0,-999.0,98,0.00,,,0.00,,2017-08-17 11:18:00,
2017-08-17 07:24:00,73.4,72.0,30.02,ESE,113,0.0,-999.0,98,0.00,,,0.00,,2017-08-17 11:24:00,
2017-08-17 07:30:00,73.4,72.0,30.02,SSE,158,0.0,-999.0,98,0.00,,,0.00,,2017-08-17 11:30:00,
2017-08-17 07:35:00,73.4,72.0,30.03,SE,135,0.0,-999.0,98,0.00,,,0.00,,2017-08-17 11:35:00,
2017-08-17 07:41:00,73.4,72.0,30.03,SE,135,0.0,-999.0,98,0.00,,,0.00,,2017-08-17 11:41:00,
2017-08-17 07:47:00,73.5,72.0,30.03,SE,135,0.0,-999.0,98,0.00,,,0.00,,2017-08-17 11:47:00,
2017-08-17 07:53:00,73.8,73.0,30.03,SE,135,0.0,-999.0,98,0.00,,,0.00,,2017-08-17 11:53:00,
2017-08-17 07:59:00,74.0,73.0,30.03,SSE,158,0.0,-999.0,98,0.00,,,0.00,,2017-08-17 11:59:00,
2017-08-17 08:05:00,74.3,73.0,30.03,ESE,113,0.0,-999.0,98,0.00,,,0.00,,2017-08-17 12:05:00,
2017-08-17 08:10:00,74.3,73.0,30.04,ESE,113,0.0,-999.0,98,0.00,,,0.00,,2017-08-17 12:10:00,
2017-08-17 08:16:00,74.4,74.0,30.04,ESE,113,0.0,-999.0,98,0.00,,,0.00,,2017-08-17 12:16:00,
2017-08-17 08:22:00,74.8,74.0,30.03,ENE,68,0.0,-999.0,98,0.00,,,0.00,,2017-08-17 12:22:00,
2017-08-17 08:28:00,75.1,74.0,30.04,WSW,248,0.0,-999.0,98,0.00,,,0.00,,2017-08-17 12:28:00,
2017-08-17 08:33:00,75.5,75.0,30.04,SE,135,0.0,-999.0,98,0.00,,,0.00,,2017-08-17 12:33:00,
2017-08-17 08:39:00,76.0,75.0,30.04,ENE,68,0.0,-999.0,98,0.00,,,0.00,,2017-08-17 12:39:00,
2017-08-17 08:46:00,76.8,76.0,30.04,SE,135,0.0,-999.0,98,0.00,,,0.00,,2017-08-17 12:46:00,
2017-08-17 08:52:00,76.9,76.0,30.03,East,90,0.0,-999.0,98,0.00,,,0.00,,2017-08-17 12:52:00,
2017-08-17 09:07:00,78.3,77.0,30.04,NNW,338,0.0,-999.0,96,0.00,,,0.00,,2017-08-17 13:07:00,
2017-08-17 09:30:00,82.1,77.0,30.04,South,180,0.0,-999.0,86,0.00,,,0.00,,2017-08-17 13:30:00,
2017-08-17 09:43:00,81.7,77.0,30.04,NNW,338,0.0,-999.0,86,0.00,,,0.00,,2017-08-17 13:43:00,
2017-08-17 09:51:00,81.7,77.0,30.04,ENE,68,0.0,-999.0,86,0.00,,,0.00,,2017-08-17 13:51:00,
2017-08-17 10:04:00,81.7,77.0,30.04,NNW,338,0.0,-999.0,86,0.00,,,0.00,,2017-08-17 14:04:00,
2017-08-17 11:18:00,86.4,75.0,30.04,NNE,23,1.0,-999.0,70,0.00,,,0.00,,2017-08-17 15:18:00,
2017-08-17 11:25:00,86.4,75.0,30.04,ESE,113,3.0,-999.0,70,0.00,,,0.00,,2017-08-17 15:25:00,
2017-08-17 11:36:00,87.6,77.0,30.03,ESE,113,1.0,-999.0,70,0.00,,,0.00,,2017-08-17 15:36:00,
2017-08-17 11:42:00,87.6,77.0,30.04,NNW,338,1.0,-999.0,70,0.00,,,0.00,,2017-08-17 15:42:00,
2017-08-17 11:52:00,91.4,76.0,30.04,South,180,0.0,-999.0,61,0.00,,,0.00,,2017-08-17 15:52:00,
2017-08-17 12:03:00,91.1,76.0,30.03,SW,225,1.0,-999.0,63,0.00,,,0.00,,2017-08-17 16:03:00,
2017-08-17 12:13:00,91.9,77.0,30.03,South,180,1.0,-999.0,61,0.00,,,0.00,,2017-08-17 16:13:00,
2017-08-17 12:37:00,94.4,77.0,30.02,East,90,2.0,-999.0,58,0.00,,,0.00,,2017-08-17 16:37:00,
2017-08-17 12:43:00,94.3,76.0,30.01,West,270,2.0,-999.0,55,0.00,,,0.00,,2017-08-17 16:43:00,
2017-08-17 12:51:00,94.3,76.0,30.02,ESE,113,0.0,-999.0,55,0.00,,,0.00,,2017-08-17 16:51:00,
2017-08-17 13:01:00,92.3,75.0,30.01,East,90,2.0,-999.0,59,0.00,,,0.00,,2017-08-17 17:01:00,
2017-08-17 13:36:00,92.3,75.0,29.99,NW,315,3.0,-999.0,59,0.00,,,0.00,,2017-08-17 17:36:00,
2017-08-17 13:44:00,95.3,76.0,29.99,West,270,0.0,-999.0,54,0.00,,,0.00,,2017-08-17 17:44:00,
2017-08-17 13:50:00,92.8,76.0,29.99,ESE,113,1.0,-999.0,59,0.00,,,0.00,,2017-08-17 17:50:00,
2017-08-17 13:56:00,94.3,77.0,29.99,NNW,338,2.0,-999.0,59,0.00,,,0.00,,2017-08-17 17:56:00,
2017-08-17 14:03:00,96.3,76.0,29.98,NNW,338,0.0,-999.0,54,0.00,,,0.00,,2017-08-17 18:03:00,
2017-08-17 14:12:00,96.3,76.0,30.02,NNW,338,2.0,-999.0,54,0.00,,,0.00,,2017-08-17 18:12:00,